Location: Lane
(33.5226°N, 79.8788°W)
Time: 19:35:33
(UTC+00:00)

Courier 1B Rocket - Pass Details

Date: 09 October 2022
Orbit: 920 x 1202 km, 28.3° (Epoch: 01 December)

Event Time Altitude Azimuth Distance (km) Brightness Sun altitude
Rises 20:24:34 0° 230° (SW) 4,055 9.4 28.4°
Reaches altitude 10° 20:27:45 10° 221° (SW) 3,067 9.0 27.8°
Maximum altitude 20:34:23 33° 160° (SSE) 1,775 6.7 26.6°
Drops below altitude 10° 20:40:41 10° 99° (E) 2,906 7.1 25.5°
Sets 20:43:36 0° 90° (E) 3,816 7.6 24.9°
